Mineral Point, WI

3:58 PM CDT on August 22, 2017 (GMT -0500)
Iowa County

Weather History for KMRJ - October, 2012

Change the Weather History Date:

Thursday, October 11, 2012

  Actual Average (KLNR) Record (KLNR)
Temperature  
Mean Temperature 48 °F -  
Max Temperature 60 °F 60 °F 82 °F (2010)
Min Temperature 37 °F 38 °F 24 °F (2000)
Degree Days  
Heating Degree Days 16    
Moisture  
Dew Point 31 °F    
Average Humidity 55    
Maximum Humidity 81    
Minimum Humidity 31    
Precipitation  
Precipitation 0.00 in - - ()
Sea Level Pressure  
Sea Level Pressure 30.09 in    
Wind  
Wind Speed 10 mph (West)    
Max Wind Speed 23 mph    
Max Gust Speed 28 mph    
Visibility 10 miles    
Events Rain    
Averages and records for this station are not official NWS values.
T = Trace of Precipitation, MM = Missing Value Source: NWS Daily Summary

Daily Weather History Graph

Daily Weather History Graph

Search for Another Location

Airport or City:

Trip Planner

Search our weather history database for the weather conditions in past years. The results will help you decide how hot, cold, wet, or windy it might be!

Date:

Astronomy

Oct. 11, 2012 Rise Set
Actual Time 7:10 AM CDT 6:24 PM CDT
Civil Twilight 6:41 AM CDT 6:52 PM CDT
Nautical Twilight 6:08 AM CDT 7:25 PM CDT
Astronomical Twilight 5:36 AM CDT 7:58 PM CDT
Moon 2:43 AM CDT (10/11) 4:05 PM CDT (10/11)
Length of Visible Light 12h 10m
Length of Day
11h 13m
Waning Crescent, 18% of the Moon is Illuminated
Oct 11
Waning Crescent
Oct 15
New
Oct 21
First Quarter
Oct 29
Full
Nov 6
Last Quarter

Hourly Weather History & Observations

Time (CDT) Temp. Windchill Dew Point Humidity Pressure Visibility Wind Dir Wind Speed Gust Speed Precip Events Conditions
12:15 AM 37.4 °F 32.1 °F 28.4 °F 70% 30.08 in 10.0 mi SSE 6.9 mph - N/A   Mostly Cloudy
12:35 AM 37.4 °F 31.4 °F 28.4 °F 70% 30.07 in 10.0 mi South 8.1 mph - N/A   Scattered Clouds
12:55 AM 37.4 °F 30.8 °F 26.6 °F 65% 30.06 in 10.0 mi South 9.2 mph - N/A   Clear
1:15 AM 37.4 °F 30.8 °F 26.6 °F 65% 30.05 in 10.0 mi South 9.2 mph - N/A   Clear
1:35 AM 37.4 °F 31.4 °F 26.6 °F 65% 30.04 in 10.0 mi South 8.1 mph - N/A   Clear
1:55 AM 37.4 °F 30.8 °F 26.6 °F 65% 30.04 in 10.0 mi South 9.2 mph - N/A   Clear
2:15 AM 37.4 °F 30.8 °F 26.6 °F 65% 30.04 in 10.0 mi South 9.2 mph - N/A   Clear
2:55 AM 37.4 °F 30.3 °F 26.6 °F 65% 30.02 in 10.0 mi South 10.4 mph - N/A   Clear
3:15 AM 37.4 °F 31.4 °F 26.6 °F 65% 30.03 in 10.0 mi South 8.1 mph - N/A   Clear
3:35 AM 37.4 °F 30.8 °F 26.6 °F 65% 30.02 in 10.0 mi South 9.2 mph - N/A   Clear
3:55 AM 39.2 °F 33.6 °F 28.4 °F 65% 30.01 in 10.0 mi South 8.1 mph - N/A   Clear
4:15 AM 39.2 °F 32.0 °F 28.4 °F 65% 30.00 in 10.0 mi South 11.5 mph - N/A   Clear
4:35 AM 41.0 °F 33.5 °F 28.4 °F 61% 29.99 in 10.0 mi SSW 13.8 mph - N/A   Clear
4:55 AM 41.0 °F 33.9 °F 28.4 °F 61% 30.00 in 10.0 mi SSW 12.7 mph - N/A   Clear
5:15 AM 42.8 °F 36.6 °F 28.4 °F 57% 30.00 in 10.0 mi SW 11.5 mph - N/A   Clear
5:35 AM 42.8 °F 36.2 °F 28.4 °F 57% 30.01 in 10.0 mi SW 12.7 mph 18.4 mph N/A   Clear
5:55 AM 42.8 °F 35.4 °F 28.4 °F 57% 30.00 in 10.0 mi SSW 15.0 mph - N/A   Clear
6:15 AM 42.8 °F 35.8 °F 28.4 °F 57% 30.00 in 10.0 mi SW 13.8 mph - N/A   Clear
6:35 AM 44.6 °F 38.1 °F 28.4 °F 53% 30.00 in 10.0 mi SSW 13.8 mph - N/A   Clear
6:55 AM 42.8 °F 35.8 °F 30.2 °F 61% 30.00 in 10.0 mi SW 13.8 mph - N/A   Clear
7:15 AM 44.6 °F 38.8 °F 30.2 °F 57% 30.00 in 10.0 mi SSW 11.5 mph - N/A   Mostly Cloudy
7:35 AM 44.6 °F 38.4 °F 30.2 °F 57% 30.01 in 10.0 mi SW 12.7 mph 19.6 mph N/A   Mostly Cloudy
7:55 AM 46.4 °F 40.4 °F 30.2 °F 53% 30.00 in 10.0 mi SW 13.8 mph - N/A   Mostly Cloudy
8:15 AM 46.4 °F 40.7 °F 30.2 °F 53% 30.01 in 10.0 mi SW 12.7 mph 16.1 mph N/A   Overcast
8:35 AM 48.2 °F - 32.0 °F 54% 30.02 in 10.0 mi SW 12.7 mph - N/A   Overcast
8:55 AM 50.0 °F - 30.2 °F 47% 30.01 in 10.0 mi SW 16.1 mph 21.9 mph N/A   Overcast
9:15 AM 50.0 °F - 32.0 °F 50% 30.03 in 10.0 mi SW 13.8 mph 18.4 mph N/A   Mostly Cloudy
9:35 AM 51.8 °F - 32.0 °F 47% 30.03 in 10.0 mi SW 18.4 mph 21.9 mph N/A   Scattered Clouds
9:55 AM 51.8 °F - 32.0 °F 47% 30.03 in 10.0 mi WSW 16.1 mph 23.0 mph N/A   Clear
10:15 AM 53.6 °F - 32.0 °F 44% 30.04 in 10.0 mi SW 18.4 mph 24.2 mph N/A   Clear
10:35 AM 55.4 °F - 30.2 °F 38% 30.03 in 10.0 mi West 20.7 mph 25.3 mph N/A   Clear
10:55 AM 57.2 °F - 30.2 °F 36% 30.03 in 10.0 mi WSW 23.0 mph 27.6 mph N/A   Clear
11:15 AM 59.0 °F - 30.2 °F 34% 30.04 in 10.0 mi West 19.6 mph 26.5 mph N/A   Clear
11:35 AM 59.0 °F - 30.2 °F 34% 30.04 in 10.0 mi West 15.0 mph 27.6 mph N/A   Clear
11:55 AM 60.8 °F - 30.2 °F 31% 30.04 in 10.0 mi West 13.8 mph 21.9 mph N/A   Clear
12:15 PM 60.8 °F - 30.2 °F 31% 30.04 in 10.0 mi West 12.7 mph 19.6 mph N/A   Clear
12:55 PM 60.8 °F - 30.2 °F 31% 30.05 in 10.0 mi West 15.0 mph 23.0 mph N/A   Scattered Clouds
1:15 PM 60.8 °F - 30.2 °F 31% 30.04 in 10.0 mi NW 9.2 mph 19.6 mph N/A   Scattered Clouds
1:35 PM 60.8 °F - 30.2 °F 31% 30.04 in 10.0 mi WNW 11.5 mph 19.6 mph N/A   Mostly Cloudy
1:55 PM 59.0 °F - 30.2 °F 34% 30.05 in 10.0 mi NNW 11.5 mph 20.7 mph N/A   Overcast
2:15 PM 59.0 °F - 30.2 °F 34% 30.05 in 10.0 mi NNW 9.2 mph 18.4 mph N/A   Mostly Cloudy
2:35 PM 59.0 °F - 32.0 °F 36% 30.05 in 10.0 mi NW 10.4 mph - N/A   Overcast
2:55 PM 55.4 °F - 32.0 °F 41% 30.07 in 10.0 mi NNW 11.5 mph 18.4 mph N/A   Mostly Cloudy
3:15 PM 55.4 °F - 32.0 °F 41% 30.08 in 10.0 mi NNW 8.1 mph - N/A Rain Light Rain
3:35 PM 53.6 °F - 37.4 °F 54% 30.09 in 10.0 mi NNW 5.8 mph - N/A Rain Light Rain
3:55 PM 51.8 °F - 37.4 °F 58% 30.10 in 10.0 mi NNW 8.1 mph - N/A Rain Light Rain
4:15 PM 50.0 °F - 39.2 °F 66% 30.11 in 10.0 mi NW 9.2 mph - N/A Rain Light Rain
5:15 PM 46.4 °F 42.9 °F 41.0 °F 81% 30.13 in 10.0 mi WNW 6.9 mph - N/A Rain Light Rain
5:35 PM 46.4 °F 45.2 °F 41.0 °F 81% 30.14 in 10.0 mi WNW 3.5 mph - N/A   Light Drizzle
5:55 PM 46.4 °F - 41.0 °F 81% 30.14 in 10.0 mi Calm Calm - N/A   Overcast
6:15 PM 46.4 °F 43.5 °F 41.0 °F 81% 30.16 in 10.0 mi NW 5.8 mph - N/A   Overcast
6:35 PM 46.4 °F 43.5 °F 35.6 °F 66% 30.16 in 10.0 mi NNW 5.8 mph - N/A   Overcast
6:55 PM 46.4 °F 42.9 °F 33.8 °F 62% 30.17 in 10.0 mi NNW 6.9 mph - N/A   Overcast
7:15 PM 44.6 °F 41.4 °F 33.8 °F 66% 30.18 in 10.0 mi NNW 5.8 mph - N/A   Overcast
7:35 PM 44.6 °F 41.4 °F 33.8 °F 66% 30.18 in 10.0 mi NNW 5.8 mph - N/A   Overcast
8:15 PM 44.6 °F - 32.0 °F 61% 30.21 in 10.0 mi Calm Calm - N/A   Overcast
8:35 PM 44.6 °F - 32.0 °F 61% 30.21 in 10.0 mi Calm Calm - N/A   Overcast
8:55 PM 44.6 °F 43.1 °F 32.0 °F 61% 30.22 in 10.0 mi NNW 3.5 mph - N/A   Overcast
9:15 PM 44.6 °F 43.1 °F 32.0 °F 61% 30.23 in 10.0 mi NNW 3.5 mph - N/A   Overcast
9:35 PM 44.6 °F 43.1 °F 32.0 °F 61% 30.23 in 10.0 mi NNW 3.5 mph - N/A   Overcast
9:55 PM 44.6 °F 43.1 °F 32.0 °F 61% 30.25 in 10.0 mi NNW 3.5 mph - N/A   Overcast
10:15 PM 44.6 °F 41.4 °F 32.0 °F 61% 30.26 in 10.0 mi NNW 5.8 mph - N/A   Mostly Cloudy
10:55 PM 44.6 °F 39.2 °F 26.6 °F 49% 30.28 in 10.0 mi North 10.4 mph - N/A   Mostly Cloudy
11:15 PM 42.8 °F 38.0 °F 23.0 °F 46% 30.29 in 10.0 mi North 8.1 mph - N/A   Scattered Clouds
11:35 PM 42.8 °F 37.0 °F 21.2 °F 42% 30.29 in 10.0 mi NNE 10.4 mph - N/A   Clear
11:55 PM 42.8 °F 37.0 °F 21.2 °F 42% 30.31 in 10.0 mi North 10.4 mph - N/A   Clear